Weather in Kuvakino

Russia / Chuvash Republic     54°58′59″N   46°24′25″E
temp.,
°C
wind,
m/s
gust,
m/s
humid.,
%
clouds,
%
prec.,
mm/h
press.,
hPa
HPBL,
m
27 october, wed
wed2700:00+2wsw61270100 0.0 1021410
03:00+2wsw51372100 0.0 1020429
06:00+2sw51272100 0.0 1019420
09:00+3sw51265100 0.0 1019508
12:00+6sw71355100 0.0 1017647
15:00+7sw7145380 0.0 1016745
18:00+5sw7155997 0.0 1015660
21:00+5sw71457100 0.0 1013672
28 october, thu
thu2800:00+3wsw71490100 0.4 1012944
03:00+4w61297100 0.6 1012743
06:00+5w51182100 0.0 1013577
09:00+6wsw51173100 0.0 1013431
12:00+8wsw61063100 0.0 1013890
15:00+8sw6966100 0.0 1012878
18:00+6sw51083100 0.8 1012932
21:00+6sw3791100 2.9 1012965
29 october, fri
fri2900:00+5n6991100 0.4 1014945
03:00+3nne71288100 0.6 1019679
06:00−2nne612735 0.0 1025566
09:00−2nne58590 0.0 1028583
12:00+1nne34437 0.0 1030771
15:00+1ne22435 0.0 1031653
18:00−1s115428 0.0 103210
21:00−1ssw355765 0.0 1032122
30 october, sat
sat3000:00−1ssw495568 0.0 1032278
03:000sw5115294 0.0 1031337
06:000sw5135498 0.0 1030325
09:00+2wsw6146172 0.0 1030389
12:00+6wsw6136498 0.0 1029483
15:00+6wsw613695 0.0 1029442
18:00+5wsw5127742 0.0 1030310
21:00+3wsw36855 0.0 1030112
31 october, sun
sun3100:00+2sw34885 0.0 103070
03:00+2sw34895 0.0 103167
06:00+1sw34895 0.0 103058
09:00+4wsw41375100 0.0 1031344
12:00+8wsw6115746 0.0 1030474
15:00+8sw512555 0.0 1029457
18:00+6sw512605 0.0 1029300
21:00+4wsw513655 0.0 1029292